Content
SEND FEEDBACK

Daily
Averages
Monthly
Summary
United States of America

DEADWOOD, SOUTH DAKOTA


Home > North America > United States > South Dakota
Elevation: 5143 feet     Latitude: 44 21N     Longitude: 103 46W

WEATHER
 
SELECT A DAY
Number of Records: 227,864;   Date Range: 1/2/95 - 9/18/14
 
SHARE

PRINT THIS DATA

[ ← Previous Day ]
WEATHER ALMANAC - FEBRUARY 13, 2013
[ Next Day → ]
[ °C ]   °F
Weather ElementAverageHighLow
Temperature35.5 °F39.2 °F (6:35 am)30.2 °F (11:15 pm)
Dewpoint23.7 °F32 °F (1:15 pm)17.6 °F (5:15 am)
Humidity63.9 %93 % (2:15 pm)45 % (5:35 am)
Barometer29.82 in29.96 in (11:35 pm)29.74 in (7:15 am)
Wind Speed17.1 mph24.2 mph (1:55 pm)
Wind Gust39.1 mph (9:55 am)
Weather ElementAverage
Visibility9.8 mi
Wind DirectionWNW (278.3 °)

Weather ElementTotal
Precipitation0.72 in
Heating Degree Days30.3 (Base 65)
Averaged from 70 records on February 13, 2013
WEATHER CONDITIONS BREAKOUT
WIND DIRECTION BREAKOUT
WEATHER BY HOUR - FEBRUARY 13, 2013
[ °C ]   °F
Local TimeTemperatureDewpointHumidityBarometerVisibilityWind DirectionWind SpeedGust SpeedPrecipitationEventsConditions
12:35 AM32.0 °F19.4 °F60 %29.86 in10.0 miWSW (250°)15.0 mph19.6 mphOvercast
12:55 AM32.0 °F19.4 °F60 %29.86 in10.0 miWest (260°)10.4 mphMostly Cloudy
1:15 AM32.0 °F19.4 °F60 %29.85 in10.0 miWSW (250°)13.8 mph18.4 mphMostly Cloudy
1:35 AM33.8 °F21.2 °F60 %29.84 in10.0 miWest (260°)12.7 mphMostly Cloudy
1:55 AM35.6 °F23.0 °F60 %29.83 in10.0 miWest (260°)12.7 mph19.6 mphOvercast
2:15 AM35.6 °F23.0 °F60 %29.83 in10.0 miWest (270°)12.7 mph20.7 mphOvercast
2:35 AM35.6 °F23.0 °F60 %29.82 in10.0 miWest (260°)13.8 mph21.9 mphOvercast
2:55 AM33.8 °F21.2 °F60 %29.81 in10.0 miWSW (250°)15.0 mph21.9 mphScattered Clouds
3:15 AM32.0 °F21.2 °F64 %29.80 in10.0 miWest (260°)13.8 mph17.3 mphClear
3:35 AM33.8 °F21.2 °F60 %29.79 in10.0 miWest (260°)15.0 mph23.0 mphClear
3:55 AM33.8 °F19.4 °F56 %29.78 in10.0 miWest (260°)15.0 mph19.6 mphClear
4:15 AM33.8 °F19.4 °F56 %29.78 in10.0 miWest (270°)15.0 mph24.2 mphClear
4:35 AM35.6 °F19.4 °F52 %29.77 in10.0 miWSW (250°)15.0 mph21.9 mphClear
4:55 AM35.6 °F19.4 °F52 %29.77 in10.0 miWest (260°)17.3 mphClear
5:15 AM35.6 °F17.6 °F48 %29.76 in10.0 miWest (260°)20.7 mph24.2 mphClear
5:35 AM37.4 °F17.6 °F45 %29.76 in10.0 miWest (260°)18.4 mph27.6 mphClear
5:55 AM37.4 °F17.6 °F45 %29.76 in10.0 miWest (270°)17.3 mph24.2 mphScattered Clouds
6:15 AM37.4 °F19.4 °F48 %29.76 in10.0 miWest (270°)20.7 mph31.1 mphOvercast
6:35 AM39.2 °F19.4 °F45 %29.76 in10.0 miWest (280°)18.4 mph34.5 mphOvercast
6:55 AM39.2 °F19.4 °F45 %29.75 in10.0 miWest (270°)20.7 mph31.1 mphOvercast
7:15 AM39.2 °F21.2 °F49 %29.74 in10.0 miWest (270°)23.0 mph31.1 mphOvercast
7:35 AM39.2 °F19.4 °F45 %29.75 in10.0 miWest (280°)20.7 mph27.6 mphOvercast
7:55 AM39.2 °F19.4 °F45 %29.75 in10.0 miWest (280°)21.9 mph31.1 mphOvercast
8:15 AM39.2 °F19.4 °F45 %29.75 in10.0 miWest (280°)19.6 mph34.5 mphOvercast
8:35 AM39.2 °F19.4 °F45 %29.76 in10.0 miWest (280°)20.7 mph34.5 mphOvercast
8:55 AM39.2 °F19.4 °F45 %29.76 in10.0 miWest (280°)18.4 mph26.5 mphOvercast
9:15 AM39.2 °F19.4 °F45 %29.77 in10.0 miWNW (290°)21.9 mph28.8 mphOvercast
9:35 AM39.2 °F19.4 °F45 %29.77 in10.0 miWest (280°)18.4 mph29.9 mphMostly Cloudy
9:55 AM39.2 °F21.2 °F49 %29.77 in10.0 miWest (280°)19.6 mph39.1 mphMostly Cloudy
10:15 AM39.2 °F23.0 °F52 %29.77 in10.0 miWest (280°)21.9 mph36.8 mphScattered Clouds
10:35 AM39.2 °F23.0 °F52 %29.77 in10.0 miWest (280°)21.9 mph27.6 mphScattered Clouds
10:55 AM39.2 °F23.0 °F52 %29.77 in10.0 miWNW (290°)20.7 mph28.8 mphMostly Cloudy
11:15 AM39.2 °F23.0 °F52 %29.77 in10.0 miWNW (290°)18.4 mph31.1 mphMostly Cloudy
11:35 AM39.2 °F24.8 °F56 %29.77 in10.0 miWNW (300°)20.7 mph36.8 mphOvercast
11:55 AM39.2 °F24.8 °F56 %29.77 in10.0 miWNW (300°)21.9 mph28.8 mphMostly Cloudy
12:35 PM39.2 °F24.8 °F56 %29.77 in10.0 miWNW (300°)19.6 mph25.3 mphOvercast
12:55 PM37.4 °F28.4 °F70 %29.78 in4.0 miNW (320°)20.7 mph36.8 mph0.01 inMostly Cloudy
1:15 PM35.6 °F32.0 °F87 %29.78 in10.0 miWNW (300°)16.1 mph20.7 mph0.01 inSnowLight Snow
1:35 PM35.6 °F32.0 °F87 %29.78 in10.0 miNW (310°)20.7 mph28.8 mph0.01 inRainLight Rain
1:55 PM35.6 °F30.2 °F81 %29.79 in10.0 miWNW (300°)24.2 mph29.9 mph0.01 inOvercast
2:15 PM32.0 °F30.2 °F93 %29.80 in1.2 miWNW (300°)17.3 mph31.1 mph0.16 inSnowLight Snow
2:35 PM33.8 °F32.0 °F93 %29.78 in10.0 miWest (280°)17.3 mph23.0 mph0.26 inPartly Cloudy
2:55 PM35.6 °F28.4 °F75 %29.78 in10.0 miWest (280°)16.1 mph24.2 mph0.26 inPartly Cloudy
3:15 PM35.6 °F28.4 °F75 %29.79 in10.0 miWest (280°)16.1 mph27.6 mphClear
3:35 PM35.6 °F26.6 °F70 %29.80 in10.0 miWest (280°)17.3 mph29.9 mphScattered Clouds
3:55 PM35.6 °F26.6 °F70 %29.79 in10.0 miWest (280°)18.4 mph25.3 mphScattered Clouds
4:15 PM35.6 °F26.6 °F70 %29.81 in10.0 miWNW (290°)16.1 mph27.6 mphScattered Clouds
4:35 PM35.6 °F26.6 °F70 %29.82 in10.0 miWNW (300°)17.3 mph24.2 mphMostly Cloudy
4:55 PM35.6 °F26.6 °F70 %29.82 in10.0 miWNW (290°)19.6 mph25.3 mphMostly Cloudy
5:15 PM35.6 °F26.6 °F70 %29.83 in10.0 miWest (280°)18.4 mph27.6 mphMostly Cloudy
5:35 PM35.6 °F26.6 °F70 %29.83 in10.0 miWest (280°)20.7 mph28.8 mphScattered Clouds
5:55 PM35.6 °F26.6 °F70 %29.84 in10.0 miWest (280°)15.0 mph24.2 mphScattered Clouds
6:15 PM35.6 °F26.6 °F70 %29.85 in10.0 miWest (280°)17.3 mph24.2 mphMostly Cloudy
6:35 PM35.6 °F26.6 °F70 %29.86 in10.0 miWest (280°)12.7 mph21.9 mphOvercast
6:55 PM35.6 °F26.6 °F70 %29.87 in10.0 miWest (280°)13.8 mph20.7 mphOvercast
7:15 PM33.8 °F26.6 °F75 %29.86 in10.0 miWest (280°)15.0 mph18.4 mphMostly Cloudy
7:35 PM35.6 °F26.6 °F70 %29.87 in10.0 miWest (280°)11.5 mph26.5 mphMostly Cloudy
7:55 PM33.8 °F26.6 °F75 %29.88 in10.0 miWest (280°)18.4 mph25.3 mphOvercast
8:15 PM32.0 °F28.4 °F87 %29.90 in10.0 miWest (280°)17.3 mph29.9 mphOvercast
8:35 PM32.0 °F28.4 °F87 %29.90 in10.0 miWest (280°)18.4 mph26.5 mphMostly Cloudy
8:55 PM32.0 °F28.4 °F87 %29.90 in10.0 miWest (270°)15.0 mph23.0 mphScattered Clouds
9:15 PM32.0 °F26.6 °F80 %29.91 in10.0 miWest (270°)15.0 mph25.3 mphPartly Cloudy
9:35 PM32.0 °F24.8 °F75 %29.92 in10.0 miWest (270°)13.8 mph21.9 mphScattered Clouds
9:55 PM32.0 °F24.8 °F75 %29.93 in10.0 miWest (280°)12.7 mph18.4 mphPartly Cloudy
10:15 PM32.0 °F24.8 °F75 %29.93 in10.0 miWest (280°)12.7 mphPartly Cloudy
10:35 PM32.0 °F24.8 °F75 %29.94 in10.0 miWest (280°)12.7 mph20.7 mphClear
10:55 PM32.0 °F23.0 °F69 %29.94 in10.0 miWest (280°)15.0 mphClear
11:15 PM30.2 °F23.0 °F75 %29.95 in10.0 miWNW (290°)13.8 mph19.6 mphClear
11:35 PM30.2 °F23.0 °F75 %29.96 in10.0 miWNW (290°)13.8 mph19.6 mphClear
11:55 PM30.2 °F23.0 °F75 %29.96 in10.0 miWNW (290°)12.7 mph19.6 mphMostly Cloudy
Hourly data recorded from KSPF, located miles away from Deadwood, South Dakota







STORIES FROM OUR PARTNERS